Regional Weather Roundup
Issued by NWS Memphis, TN

Home | Current Version | Previous Version | Text Only | Print | Product List | Glossary On
Versions: 1 2 3 4 5 6 7 8 9 10 11 12 13 14 15 16 17 18 19 20 21 22 23 24 25 26 27 28 29 30 31 32 33 34 35 36 37 38 39 40 41 42 43 44 45 46 47 48 49 50
000
ASUS44 KMEG 191410
RWRMEG
MEMPHIS CWA HOURLY WEATHER ROUNDUP
NATIONAL WEATHER SERVICE MEMPHIS TN
900 AM CDT THU OCT 19 2017

...WEST TENNESSEE...

CITY           SKY/WX    TMP DP  RH WIND       PRES   REMARKS
MEMPHIS INTL   PTSUNNY   59  48  67 S8        30.27R
NWS MEMPHIS      N/A     54 N/A N/A MISG        N/A
JACKSON        SUNNY     56  51  84 CALM      30.29R
COVINGTON      SUNNY     52  48  87 CALM      30.28R
SOMERVILLE     SUNNY     57  48  72 VRB6      30.27R
BOLIVAR        SUNNY     50  48  93 SE3       30.28R
LEXINGTON      SUNNY     50  48  93 CALM      30.30R
SELMER         SUNNY     57  48  72 S5        30.29R
SAVANNAH       SUNNY     55  50  82 VRB3      30.30R
UNION CITY     SUNNY     55  50  82 S7        30.27R
PARIS          SUNNY     57  48  72 S7        30.27S
HUNTINGDON     SUNNY     55  50  82 S3        30.28R


...EASTERN ARKANSAS...

CITY           SKY/WX    TMP DP  RH WIND       PRES   REMARKS
JONESBORO      SUNNY     55  51  86 S3        30.26R
WEST MEMPHIS   MOSUNNY   57  52  83 S5        30.25R
BATESVILLE     MOSUNNY   57  49  74 CALM      30.24R
NEWPORT        SUNNY     55  50  83 S6        30.26R
WALNUT RIDGE     N/A    N/A N/A N/A MISG        N/A
BLYTHEVILLE    SUNNY     59  50  72 S6        30.27R
SEARCY         MOSUNNY   53  53 100 CALM      30.26R
STUTTGART      SUNNY     57  51  80 SE5       30.25R HAZE
PINE BLUFF     SUNNY     54  49  83 E3        30.25R
MONTICELLO     MOSUNNY   58  50  75 CALM      30.25R


...NORTH MISSISSIPPI...

CITY           SKY/WX    TMP DP  RH WIND       PRES   REMARKS
TUPELO         SUNNY     53  48  83 CALM      30.30R
OXFORD         SUNNY     54  48  82 CALM      30.30R
BATESVILLE     CLOUDY    51  50  95 CALM      30.28R
OLIVE BRANCH   MOSUNNY  N/A N/A N/A S5        30.26R
TUNICA           N/A    N/A N/A N/A SE3       30.28R
CLARKSDALE       N/A     55  52  88 E5        30.27R
CORINTH        SUNNY     50  50 100 CALM      30.30R
GREENWOOD      SUNNY     59  51  75 E3        30.27R
COLUMBUS       SUNNY     55  52  88 CALM      30.29R
STARKVILLE     SUNNY     54  54 100 CALM      30.31R
GOLDEN TRIANGL SUNNY     56  50  80 E7        30.30R


...SOUTHEAST MISSOURI...

CITY           SKY/WX    TMP DP  RH WIND       PRES   REMARKS
KENNETT        SUNNY     55  52  88 CALM      30.25R
MALDEN         SUNNY     57  50  77 S7        30.26R
WEST PLAINS    SUNNY     56  50  80 CALM      30.23R
POPLAR BLUFF   SUNNY     55  50  83 CALM      30.24R
CAPE GIRARDEAU SUNNY     59  49  69 SW3       30.25R


...NORTHWEST ALABAMA...

CITY           SKY/WX    TMP DP  RH WIND       PRES   REMARKS
MUSCLE SHOALS  SUNNY     54  48  80 CALM      30.32R


...MIDDLE TENNESSEE...

CITY           SKY/WX    TMP DP  RH WIND       PRES   REMARKS
NASHVILLE      SUNNY     55  48  77 S6        30.33R
CLARKSVILLE    SUNNY     52  47  83 SE6       30.30R
COLUMBIA       SUNNY     52  48  87 CALM      30.31R


...WESTERN KENTUCKY...

CITY           SKY/WX    TMP DP  RH WIND       PRES   REMARKS
PADUCAH        SUNNY     59  47  64 SW7       30.25R
FORT CAMPBELL  SUNNY     55  46  73 S5        30.29R


...CENTRAL ARKANSAS...

CITY           SKY/WX    TMP DP  RH WIND       PRES   REMARKS
LITTLE ROCK    MOSUNNY   57  53  86 SE3       30.24R


SKY/WX REPORTED AS FAIR MEANS FEW OR NO CLOUDS BELOW
12 THOUSAND FEET.





USA.gov is the U.S. government's official web portal to all federal, state and local government web resources and services.